TimeEST,TemperatureF,Dew PointF,Humidity,Sea Level PressureIn,VisibilityMPH,Wind Direction,Wind SpeedMPH,Gust SpeedMPH,PrecipitationIn,Events,Conditions,WindDirDegrees,DateUTC
12:54 AM,30.0,21.0,69,29.41,10.0,SSW,15.0,-,N/A,,Overcast,210,2014-01-27 05:54:00
1:54 AM,30.0,21.0,69,29.35,10.0,South,11.5,-,0.00,Snow,Light Snow,190,2014-01-27 06:54:00
2:54 AM,30.0,21.9,72,29.30,9.0,WSW,4.6,-,0.00,Snow,Light Snow,250,2014-01-27 07:54:00
3:01 AM,30.2,21.2,69,29.26,5.0,WNW,5.8,-,0.00,Snow,Light Snow,290,2014-01-27 08:01:00
3:28 AM,28.4,24.8,86,29.28,2.5,WNW,13.8,-,0.02,Snow,Light Snow,300,2014-01-27 08:28:00
3:37 AM,28.4,24.8,86,29.29,1.0,WNW,13.8,-,0.02,Snow,Light Snow,290,2014-01-27 08:37:00
3:42 AM,28.4,24.8,86,29.29,0.8,West,10.4,-,0.03,Snow,Light Snow,280,2014-01-27 08:42:00
3:54 AM,28.0,25.0,88,29.34,0.8,West,16.1,25.3,0.05,Snow,Light Snow,260,2014-01-27 08:54:00
4:06 AM,28.4,26.6,93,29.33,0.8,WSW,16.1,24.2,0.01,Snow,Light Snow,250,2014-01-27 09:06:00
4:54 AM,23.0,21.0,92,29.42,0.5,WNW,20.7,31.1,0.05,Snow,Snow,290,2014-01-27 09:54:00
5:01 AM,23.0,21.2,93,29.40,0.5,WNW,15.0,27.6,0.00,Snow,Snow,290,2014-01-27 10:01:00
5:54 AM,19.0,15.1,85,29.52,0.8,West,24.2,36.8,0.01,Snow,Light Snow,280,2014-01-27 10:54:00
6:06 AM,17.6,12.2,79,29.51,1.0,West,21.9,33.4,0.00,Snow,Light Snow,280,2014-01-27 11:06:00
6:27 AM,17.6,10.4,73,29.53,2.0,West,19.6,32.2,0.00,Snow,Light Snow,280,2014-01-27 11:27:00
6:44 AM,17.6,10.4,73,29.56,3.0,West,24.2,33.4,0.00,Snow,Light Snow,270,2014-01-27 11:44:00
6:54 AM,17.1,9.0,71,29.61,3.0,West,23.0,32.2,0.00,Snow,Blowing Snow,260,2014-01-27 11:54:00
7:18 AM,15.8,6.8,68,29.61,2.0,West,31.1,44.9,N/A,Snow,Blowing Snow,280,2014-01-27 12:18:00
7:49 AM,12.2,3.2,67,29.66,3.0,West,24.2,39.1,N/A,Snow,Blowing Snow,270,2014-01-27 12:49:00
7:54 AM,12.9,3.0,65,29.70,3.0,West,25.3,36.8,N/A,Snow,Blowing Snow,270,2014-01-27 12:54:00
8:15 AM,12.2,1.4,62,29.69,10.0,West,26.5,38.0,N/A,,Mostly Cloudy,260,2014-01-27 13:15:00
8:54 AM,12.0,1.9,64,29.77,6.0,WSW,23.0,34.5,N/A,Snow,Blowing Snow,240,2014-01-27 13:54:00
9:36 AM,12.2,3.2,67,29.77,6.0,WSW,24.2,39.1,N/A,Snow,Blowing Snow,250,2014-01-27 14:36:00
9:54 AM,12.9,3.9,67,29.82,5.0,West,17.3,35.7,N/A,Snow,Blowing Snow,260,2014-01-27 14:54:00
10:54 AM,12.9,3.0,65,29.87,5.0,WSW,20.7,27.6,N/A,Snow,Blowing Snow,250,2014-01-27 15:54:00
11:54 AM,14.0,1.9,59,29.91,10.0,West,18.4,29.9,N/A,,Partly Cloudy,260,2014-01-27 16:54:00
12:54 PM,12.9,-0.0,56,29.92,8.0,West,23.0,29.9,N/A,,Scattered Clouds,260,2014-01-27 17:54:00
1:54 PM,14.0,1.9,59,29.94,8.0,West,21.9,28.8,N/A,,Scattered Clouds,260,2014-01-27 18:54:00
2:51 PM,12.2,3.2,67,29.92,1.5,WSW,19.6,27.6,0.00,Snow,Light Snow,250,2014-01-27 19:51:00
2:54 PM,12.0,3.9,70,29.96,1.2,SW,16.1,27.6,0.00,Snow,Light Snow,230,2014-01-27 19:54:00
3:01 PM,10.4,5.0,79,29.92,0.8,WSW,19.6,26.5,0.00,Snow,Light Snow,240,2014-01-27 20:01:00
3:44 PM,10.4,3.2,73,29.93,2.0,WSW,15.0,25.3,0.00,Snow,Light Snow,250,2014-01-27 20:44:00
3:54 PM,10.0,3.9,76,29.98,1.8,WSW,17.3,25.3,0.00,Snow,Light Snow,240,2014-01-27 20:54:00
4:31 PM,10.4,3.2,73,29.96,7.0,WSW,18.4,-,0.00,,Mostly Cloudy,250,2014-01-27 21:31:00
4:54 PM,10.0,-2.0,58,30.01,7.0,West,18.4,24.2,0.00,,Mostly Cloudy,260,2014-01-27 21:54:00
5:54 PM,8.1,-4.0,58,30.05,8.0,West,19.6,31.1,N/A,,Partly Cloudy,260,2014-01-27 22:54:00
6:54 PM,7.0,-4.0,61,30.06,10.0,West,12.7,-,N/A,,Partly Cloudy,270,2014-01-27 23:54:00
7:54 PM,6.1,-7.1,55,30.09,10.0,West,15.0,-,N/A,,Scattered Clouds,270,2014-01-28 00:54:00
8:54 PM,5.0,-8.0,55,30.12,10.0,West,13.8,21.9,N/A,,Scattered Clouds,280,2014-01-28 01:54:00
9:54 PM,3.9,-8.0,58,30.13,10.0,West,15.0,23.0,N/A,,Mostly Cloudy,260,2014-01-28 02:54:00
10:54 PM,3.9,-7.1,60,30.16,9.0,West,17.3,26.5,0.00,Snow,Light Snow,270,2014-01-28 03:54:00
11:54 PM,3.0,-8.0,60,30.18,8.0,West,19.6,32.2,0.00,,Overcast,270,2014-01-28 04:54:00